Zurück zum Katalog

CZ-4 DEB

AktivSSO
NORAD 26259·DEBRIS·🇨🇳 China

Gestartet Oct 14, 1999 von Taiyuan Satellite Launch Center

Loading…

Nächste Überflüge (nächste 24 Stunden)

TLE

AktuellSource: Space-Track

Epoche: Sep 14, 2026, 14:32 UTC

1 26259U 99057EV  26257.60589333  .00004881  00000-0  68196-3 0  9997
2 26259  98.3863 358.4571 0058894  90.5996 325.7632 14.76927668397405

Verfolge CZ-4 DEB in Echtzeit mit AllMySat

Download on the App Store